Temperature
-3 -3 -3 -3 -3 -3 -3 -3 -3 -3 -3 -2 -2 -2 -2 -1 -1 -1 -1 -0 -0 -0 0 0 1 1 1 1 1 1 1 2 1 2 2 3 3 3 4 4 4 4 4
-4 -4 -4 -3 -4 -3 -3 -3 -3 -3 -3 -3 -3 -2 -2 -2 -2 -2 -1 -1 -1 -1 -0 -0 -0 0 0 0 1 1 1 1 1 1 2 2 2 3 3 3 3 4 4
-4 -4 -4 -4 -4 -4 -4 -4 -4 -4 -4 -3 -3 -3 -3 -2 -2 -2 -2 -2 -2 -1 -1 -1 -1 -1 -0 -0 0 0 0 1 1 1 1 1 2 2 2 2 3 3 3
-5 -5 -5 -5 -5 -5 -5 -5 -4 -4 -4 -4 -4 -3 -3 -3 -3 -3 -3 -2 -2 -2 -2 -2 -1 -1 -1 -1 -1 -0 -0 0 0 0 0 1 1 1 2 2 2 2 2
-6 -5 -5 -5 -5 -5 -5 -5 -5 -5 -5 -4 -4 -4 -4 -3 -3 -3 -3 -3 -3 -3 -2 -2 -2 -2 -1 -1 -1 -1 -0 -0 -0 -0 -0 0 0 1 1 1 1 2 2
-6 -6 -6 -6 -6 -6 -6 -6 -6 -5 -5 -5 -5 -5 -4 -4 -4 -4 -4 -3 -3 -3 -3 -2 -2 -2 -2 -2 -1 -1 -1 -1 -1 -1 -1 -0 0 0 0 0 0 1 1
-6 -7 -7 -7 -6 -6 -6 -6 -6 -6 -6 -5 -5 -5 -5 -4 -4 -4 -4 -4 -3 -3 -3 -3 -3 -3 -2 -2 -2 -2 -2 -1 -1 -1 -1 -0 -0 0 0 -0 -0 -0 0
-7 -7 -7 -7 -7 -7 -7 -7 -7 -6 -6 -6 -6 -6 -5 -5 -5 -4 -4 -4 -4 -4 -4 -3 -3 -3 -3 -3 -3 -3 -2 -2 -2 -1 -1 -1 -1 -0 -0 -0 -1 -1 -1
-7 -7 -7 -8 -8 -7 -7 -7 -7 -7 -7 -7 -6 -6 -6 -5 -5 -5 -5 -5 -4 -4 -4 -4 -4 -4 -3 -3 -3 -3 -3 -2 -2 -2 -2 -1 -1 -1 -1 -1 -1 -1 -1
-8 -8 -8 -8 -8 -8 -8 -8 -8 -8 -7 -7 -7 -7 -7 -6 -6 -5 -5 -5 -5 -4 -4 -4 -4 -4 -4 -4 -3 -3 -3 -3 -3 -2 -2 -2 -2 -2 -2 -2 -2 -2 -2
-8 -8 -8 -8 -8 -8 -8 -8 -8 -8 -8 -8 -7 -7 -7 -7 -6 -6 -6 -6 -5 -5 -5 -5 -4 -4 -4 -4 -4 -3 -3 -3 -3 -3 -2 -2 -2 -2 -2 -2 -2 -2 -2
-9 -9 -9 -9 -9 -9 -9 -9 -9 -9 -9 -8 -8 -8 -7 -7 -7 -7 -7 -6 -6 -5 -5 -5 -5 -5 -5 -4 -4 -4 -4 -3 -3 -3 -3 -3 -3 -3 -2 -2 -2 -3 -2
-9 -9 -9 -9 -9 -9 -9 -9 -9 -9 -9 -9 -9 -9 -8 -8 -8 -7 -7 -7 -6 -6 -6 -6 -5 -5 -5 -5 -5 -4 -4 -4 -4 -4 -4 -4 -3 -3 -3 -3 -3 -3 -3
-9 -9 -9 -9 -10 -10 -10 -10 -10 -10 -10 -10 -10 -9 -9 -9 -8 -8 -8 -7 -7 -7 -6 -6 -6 -6 -5 -5 -5 -5 -5 -4 -5 -5 -4 -4 -4 -4 -4 -4 -4 -4 -3
-10 -10 -10 -10 -10 -10 -10 -10 -11 -10 -11 -10 -10 -10 -9 -9 -9 -8 -8 -8 -7 -7 -7 -7 -6 -6 -6 -6 -6 -5 -5 -5 -5 -5 -5 -5 -5 -5 -5 -4 -4 -4 -4
-10 -10 -10 -10 -11 -11 -11 -11 -11 -11 -11 -10 -10 -10 -10 -9 -9 -8 -8 -8 -8 -7 -7 -7 -7 -7 -7 -7 -6 -6 -6 -6 -6 -6 -6 -5 -5 -5 -5 -5 -5 -5 -5
-11 -11 -11 -11 -11 -11 -11 -11 -11 -10 -10 -10 -10 -10 -10 -10 -9 -9 -8 -8 -8 -8 -8 -8 -8 -8 -8 -8 -7 -7 -7 -7 -6 -6 -6 -6 -6 -6 -6 -6 -5 -5 -5
-11 -11 -11 -11 -11 -11 -12 -12 -12 -11 -11 -10 -10 -10 -10 -10 -10 -9 -9 -9 -9 -9 -9 -9 -9 -9 -9 -8 -8 -8 -7 -7 -7 -7 -6 -6 -6 -6 -6 -6 -6 -6 -6
-11 -11 -12 -12 -12 -12 -12 -12 -12 -12 -12 -11 -11 -11 -11 -10 -10 -10 -10 -10 -10 -10 -10 -9 -9 -9 -9 -9 -8 -8 -8 -8 -7 -7 -7 -7 -7 -7 -7 -7 -7 -6 -6
-12 -12 -12 -12 -12 -12 -12 -12 -12 -12 -12 -12 -12 -11 -11 -11 -11 -10 -10 -10 -10 -10 -10 -10 -10 -10 -9 -9 -9 -8 -8 -8 -8 -7 -7 -7 -7 -7 -7 -7 -7 -7 -7
-12 -12 -12 -12 -12 -12 -12 -12 -12 -12 -12 -12 -12 -12 -12 -11 -11 -11 -11 -11 -11 -11 -11 -11 -10 -10 -10 -10 -9 -9 -9 -8 -8 -8 -8 -8 -8 -8 -8 -8 -7 -7 -7
-12 -12 -12 -12 -12 -12 -12 -12 -12 -13 -13 -12 -12 -12 -12 -12 -12 -11 -11 -11 -11 -11 -11 -11 -11 -11 -10 -10 -10 -10 -9 -9 -9 -9 -8 -8 -8 -8 -8 -8 -8 -8 -8
-13 -13 -13 -13 -13 -13 -13 -13 -13 -13 -13 -13 -13 -12 -12 -12 -12 -12 -12 -12 -11 -11 -11 -11 -11 -11 -10 -10 -10 -10 -10 -10 -9 -9 -9 -9 -9 -9 -9 -8 -8 -8 -8
-13 -13 -13 -13 -13 -13 -13 -13 -13 -13 -13 -13 -13 -13 -13 -13 -12 -12 -12 -12 -12 -11 -11 -11 -11 -11 -11 -11 -10 -10 -10 -10 -10 -10 -9 -9 -9 -9 -9 -9 -9 -9 -9
-13 -13 -13 -13 -13 -13 -13 -13 -13 -13 -13 -13 -13 -13 -13 -13 -13 -12 -12 -12 -12 -12 -11 -11 -11 -11 -11 -11 -11 -11 -10 -10 -10 -10 -10 -10 -9 -9 -9 -9 -9 -9 -9
-13 -13 -13 -13 -13 -13 -13 -13 -13 -13 -13 -13 -13 -13 -13 -13 -13 -13 -12 -12 -12 -12 -12 -12 -11 -11 -11 -11 -11 -11 -11 -11 -10 -10 -10 -10 -10 -10 -10 -10 -10 -10 -10
Wind_Speed
6 6 6 6 6 6 6 7 7 7 8 8 8 8 7 7 7 6 6 6 7 7 6 7 7 6 5 5 4 5 5 4 6 5 3 3 3 4 3 3 4 5 5
6 6 6 7 7 7 7 8 7 8 8 8 8 8 8 8 7 7 8 7 8 8 8 8 8 6 7 6 5 6 6 5 6 7 5 3 4 4 3 3 3 4 5
6 6 7 7 7 8 8 8 8 8 8 9 8 8 8 8 8 8 8 8 8 9 9 9 8 8 8 6 7 7 6 6 5 6 6 4 3 3 3 3 2 3 4
6 6 7 7 7 8 8 8 8 8 8 8 9 9 9 9 9 9 9 9 8 8 9 9 9 10 10 9 8 8 7 6 6 6 6 4 4 3 3 3 3 2 3
6 6 7 8 7 7 8 8 8 8 9 9 9 9 9 8 8 9 9 9 9 8 9 9 9 11 12 10 9 8 8 7 6 6 6 5 5 4 4 3 4 2 3
6 7 7 8 8 8 8 8 8 8 8 9 9 9 10 9 13 14 11 8 8 9 9 9 8 9 11 14 14 12 11 9 8 7 7 8 7 6 4 5 4 3 4
6 7 7 7 8 8 9 9 8 8 8 9 9 9 10 12 15 14 13 9 8 8 8 8 8 8 9 8 10 12 11 13 13 10 10 10 8 8 7 7 6 5 5
6 7 7 7 8 8 8 9 8 8 8 8 9 9 10 12 15 15 13 9 7 8 9 8 8 8 8 8 7 8 8 8 10 9 9 9 8 7 8 8 7 4 3
7 7 7 8 8 8 9 9 8 8 8 8 9 9 9 11 15 14 12 6 6 7 7 7 8 8 10 11 8 8 8 7 8 9 10 9 9 9 8 5 5 4 4
8 8 8 7 8 8 9 9 8 8 8 9 9 8 9 10 14 13 11 5 6 6 6 7 9 9 11 11 9 8 9 7 6 6 6 6 6 7 9 7 7 6 4
8 8 8 7 7 7 7 7 7 8 8 8 9 9 8 9 12 13 11 5 5 6 6 5 6 9 11 11 10 8 9 8 6 6 5 5 4 4 5 5 5 6 6
7 8 8 8 7 7 7 7 7 7 7 7 7 8 7 7 10 11 12 11 9 6 5 5 6 9 10 10 8 8 8 6 4 4 4 4 4 4 4 4 4 4 5
8 8 8 8 7 6 6 7 6 6 6 6 6 7 7 7 8 13 13 12 11 7 5 7 8 8 8 6 5 6 5 3 3 4 4 4 4 4 3 3 3 3 2
7 8 8 7 7 6 6 6 5 6 6 6 7 7 7 7 7 7 7 7 8 7 5 6 7 6 5 3 3 3 2 2 3 3 3 3 2 3 3 3 3 3 2
7 7 7 7 6 6 6 5 6 5 6 7 6 6 7 7 9 12 9 6 5 5 5 3 3 3 2 2 1 1 2 2 2 2 2 2 2 2 2 2 3 3 3
7 7 6 6 6 6 6 7 10 10 12 12 12 10 8 10 13 13 13 12 11 8 5 3 3 3 2 2 2 1 1 1 1 2 2 2 2 2 2 2 2 3 3
6 6 6 6 6 6 6 7 8 10 12 12 13 13 12 12 13 13 12 11 10 8 4 3 3 3 3 3 2 1 2 1 1 1 1 1 1 2 2 2 2 2 3
6 7 7 5 6 6 6 6 6 7 8 8 10 13 13 13 12 12 11 8 6 6 4 4 4 4 3 3 3 2 2 1 1 0 0 0 1 1 2 2 3 3 3
6 5 5 5 5 6 6 6 6 7 7 7 7 9 12 12 11 11 9 5 4 5 5 4 4 4 4 3 3 2 2 1 1 1 0 0 0 1 1 2 2 3 2
6 9 8 6 6 6 6 6 6 6 6 6 7 7 8 8 6 6 6 5 4 4 4 4 4 4 4 3 3 2 2 2 1 1 0 0 0 1 1 1 2 2 2
5 7 10 7 5 6 6 5 5 6 6 6 6 8 11 6 5 6 5 5 5 4 4 4 4 4 4 3 2 2 2 2 2 1 1 1 0 0 0 1 1 1 2
5 5 5 5 5 5 6 5 5 6 6 7 7 8 11 7 5 5 5 5 5 4 4 4 4 4 3 3 2 2 2 2 2 1 1 1 0 0 0 0 0 1 1
4 5 6 5 5 7 7 5 5 5 6 6 6 6 6 6 6 6 6 5 5 5 5 4 4 4 4 3 3 2 2 2 2 2 1 1 0 0 1 1 1 1 1
4 5 5 5 5 5 5 5 5 6 6 6 6 6 6 6 6 6 6 6 5 5 5 4 4 4 5 4 4 4 3 3 3 2 2 1 1 1 1 1 1 1 1
4 4 5 5 5 5 5 6 5 6 6 6 6 6 6 6 6 6 6 6 6 6 6 5 4 4 5 5 5 5 5 5 4 2 2 2 1 1 1 1 1 1 1
4 4 4 4 5 5 5 5 5 6 6 6 6 6 6 6 6 6 6 6 6 6 6 5 5 5 6 5 6 6 6 5 4 3 1 2 1 1 1 1 1 1 1
Wind_Direction
323 318 318 313 311 314 311 307 306 307 308 304 300 298 295 294 295 288 279 268 259 260 258 253 251 249 244 240 238 236 236 230 247 264 259 258 259 252 253 241 246 236 233
317 316 314 312 313 313 310 309 310 307 307 304 300 293 290 289 286 280 280 276 263 258 256 254 254 252 245 242 237 236 236 230 231 250 259 250 253 247 239 233 251 244 231
315 312 311 312 313 310 308 309 309 308 306 303 301 292 287 284 281 277 274 271 267 259 253 249 249 244 246 245 240 236 235 238 230 235 248 244 249 243 237 252 254 264 243
312 308 307 306 304 304 305 307 307 307 304 301 299 294 289 285 279 275 273 269 265 265 258 249 245 241 240 238 239 234 229 230 228 227 238 238 236 231 214 225 244 252 260
307 306 303 303 302 305 307 306 306 307 306 303 301 298 294 286 277 273 271 270 265 265 264 257 251 247 245 241 240 233 225 226 227 226 233 234 228 213 218 219 231 244 262
301 300 303 307 308 307 307 307 308 306 306 306 302 299 296 291 288 288 282 272 266 264 264 261 259 255 251 249 246 243 234 227 226 228 235 231 229 220 216 214 216 225 253
300 302 305 307 308 307 308 308 305 305 306 305 303 301 297 294 295 292 288 283 266 260 260 257 259 258 257 253 250 249 246 241 234 228 233 230 226 216 208 215 219 226 237
300 302 305 308 307 307 306 305 304 304 303 302 303 301 300 298 300 296 293 287 269 260 258 252 251 251 249 250 245 244 246 246 239 232 234 234 229 217 212 217 215 229 245
304 303 304 305 304 305 305 304 304 304 304 303 302 302 301 302 304 300 296 286 275 268 265 259 252 249 252 251 245 243 248 251 249 238 240 238 229 228 222 206 201 209 237
309 305 300 300 299 300 300 301 303 303 302 305 306 304 302 301 307 307 302 287 283 277 271 263 261 257 255 254 243 235 241 242 239 241 243 244 234 225 227 222 213 213 220
310 311 305 301 297 295 297 301 302 305 305 305 305 307 306 308 314 313 311 300 286 282 274 268 264 264 263 261 256 242 240 241 231 229 227 228 227 218 218 225 225 220 220
314 312 310 306 304 308 303 304 305 306 306 307 309 312 313 313 318 317 315 310 305 289 283 279 269 267 269 268 260 251 249 245 227 229 226 225 220 216 211 208 213 219 224
315 313 314 315 310 308 304 305 308 309 310 312 314 315 316 317 318 320 319 316 312 305 290 289 289 284 284 273 263 256 252 234 219 228 234 229 221 211 199 191 188 195 208
313 314 318 319 317 314 313 312 311 311 311 311 312 313 315 317 318 318 315 313 316 315 309 302 304 311 313 296 286 279 262 239 222 226 229 223 211 200 203 201 204 199 209
313 315 319 320 316 317 317 314 313 305 306 311 308 307 311 313 317 323 324 320 317 313 319 328 335 333 335 327 311 295 279 254 245 231 223 217 219 216 214 203 202 204 215
318 320 319 319 319 322 322 323 326 326 324 325 323 320 315 317 322 327 330 332 334 335 342 346 334 325 315 309 310 313 303 282 254 233 221 213 210 208 206 198 197 197 209
312 313 315 320 321 320 322 325 326 331 335 336 334 333 331 331 332 332 334 337 342 349 353 341 329 323 322 321 317 310 298 296 272 233 217 215 214 204 192 199 204 203 214
317 317 319 314 316 316 318 320 321 324 328 331 335 337 337 337 338 339 342 348 351 356 353 342 333 329 327 328 323 313 306 308 307 266 231 226 217 194 194 205 211 207 210
320 318 318 316 318 318 318 321 322 324 324 325 330 337 341 341 344 348 352 355 348 345 344 340 337 335 335 334 329 325 317 301 300 303 296 273 216 178 193 209 213 212 208
319 322 328 326 325 324 323 323 323 325 326 328 330 332 336 340 345 347 350 348 344 340 338 335 334 335 334 332 333 333 337 336 334 321 303 286 221 182 191 205 209 213 210
318 321 326 328 325 323 322 322 324 325 325 326 325 327 337 342 338 335 337 338 336 333 332 332 333 333 332 332 333 336 336 331 325 323 323 322 323 230 231 213 209 211 186
315 316 319 320 322 322 323 325 326 325 325 325 325 328 337 343 338 335 332 331 331 326 323 324 325 324 322 320 321 326 325 322 316 315 317 316 322 350 187 187 187 187 165
315 317 319 320 320 324 329 326 324 324 324 324 325 329 334 337 335 333 331 328 327 324 324 322 318 321 325 318 310 300 299 291 285 277 265 269 253 201 174 172 183 173 172
315 314 317 319 321 322 321 321 320 321 322 323 325 328 330 331 329 329 330 329 327 324 322 319 314 315 320 322 314 307 299 291 284 259 225 205 207 207 176 168 183 176 169
318 316 316 316 316 317 317 318 318 320 321 322 324 326 328 328 327 329 330 329 330 329 329 326 322 323 320 316 311 304 306 313 314 282 215 181 177 186 172 163 171 168 149
319 315 312 311 310 311 313 314 314 316 316 317 319 320 321 322 323 324 325 327 329 328 328 327 326 325 322 317 312 310 311 313 317 312 228 179 176 181 161 162 165 169 158
Height
1508 1506 1503 1501 1499 1496 1493 1491 1489 1486 1484 1482 1480 1478 1477 1475 1474 1474 1473 1473 1474 1474 1474 1474 1475 1476 1477 1478 1479 1480 1481 1481 1480 1479 1481 1482 1483 1484 1485 1486 1488 1489 1490
1505 1502 1500 1497 1495 1492 1489 1487 1484 1482 1480 1478 1475 1473 1472 1470 1469 1468 1468 1468 1467 1467 1468 1468 1468 1470 1470 1471 1472 1473 1474 1475 1475 1474 1475 1476 1477 1479 1480 1481 1482 1483 1484
1501 1499 1496 1493 1491 1488 1485 1482 1480 1477 1475 1473 1470 1468 1466 1465 1464 1463 1462 1461 1461 1461 1461 1462 1462 1463 1463 1464 1465 1466 1467 1469 1469 1469 1469 1471 1472 1473 1474 1475 1476 1477 1478
1498 1495 1492 1489 1487 1484 1481 1478 1475 1472 1470 1467 1465 1463 1461 1460 1458 1457 1457 1456 1455 1455 1455 1455 1455 1456 1457 1458 1459 1459 1460 1462 1463 1463 1463 1464 1466 1467 1468 1469 1470 1471 1472
1494 1491 1488 1485 1482 1480 1477 1473 1470 1467 1465 1462 1460 1458 1456 1454 1453 1452 1451 1450 1449 1448 1448 1448 1448 1449 1450 1451 1452 1453 1454 1455 1456 1456 1457 1458 1459 1460 1461 1463 1464 1465 1466
1489 1487 1484 1481 1478 1475 1472 1469 1466 1463 1460 1457 1455 1452 1450 1448 1447 1446 1446 1444 1443 1442 1441 1440 1441 1441 1442 1444 1445 1446 1447 1448 1448 1450 1450 1451 1452 1454 1455 1457 1458 1459 1459
1485 1483 1480 1477 1474 1471 1468 1465 1461 1458 1455 1452 1449 1447 1444 1443 1441 1440 1439 1438 1436 1435 1434 1434 1434 1434 1435 1436 1437 1438 1439 1440 1442 1443 1443 1444 1445 1447 1449 1451 1452 1452 1453
1481 1479 1476 1473 1470 1467 1464 1461 1457 1454 1451 1447 1444 1442 1439 1437 1436 1434 1433 1432 1430 1429 1428 1427 1427 1427 1428 1429 1429 1430 1431 1432 1434 1435 1436 1437 1439 1441 1443 1444 1444 1446 1447
1477 1475 1472 1469 1466 1462 1459 1456 1453 1450 1446 1443 1440 1437 1434 1432 1430 1429 1427 1425 1424 1423 1422 1422 1421 1421 1421 1422 1423 1423 1423 1424 1426 1428 1429 1430 1432 1434 1435 1437 1438 1440 1440
1473 1471 1468 1465 1462 1459 1455 1452 1449 1446 1442 1439 1436 1433 1430 1427 1425 1424 1423 1420 1418 1417 1416 1416 1415 1415 1415 1416 1416 1416 1416 1416 1418 1420 1421 1423 1424 1426 1428 1430 1431 1432 1433
1470 1467 1464 1461 1458 1455 1452 1449 1445 1442 1439 1436 1432 1429 1426 1423 1421 1419 1418 1416 1414 1412 1411 1410 1409 1409 1409 1409 1410 1410 1410 1411 1412 1413 1414 1415 1417 1419 1421 1423 1425 1426 1427
1466 1463 1460 1457 1454 1451 1448 1445 1442 1438 1435 1432 1428 1425 1422 1420 1417 1415 1414 1412 1410 1408 1406 1405 1404 1404 1403 1403 1403 1403 1404 1405 1406 1406 1407 1408 1410 1412 1414 1416 1418 1420 1421
1463 1460 1457 1453 1451 1448 1445 1441 1438 1435 1432 1429 1426 1422 1419 1417 1414 1412 1410 1408 1406 1404 1402 1401 1399 1399 1398 1397 1397 1398 1399 1399 1399 1400 1400 1402 1404 1406 1408 1410 1412 1414 1415
1460 1457 1454 1450 1447 1444 1442 1439 1436 1432 1430 1427 1424 1420 1417 1415 1412 1409 1407 1405 1402 1400 1398 1397 1395 1394 1392 1392 1392 1392 1393 1394 1394 1395 1395 1396 1398 1400 1401 1403 1406 1407 1409
1457 1454 1451 1448 1445 1441 1439 1436 1433 1431 1429 1426 1422 1419 1416 1412 1410 1408 1406 1402 1400 1398 1395 1393 1391 1389 1388 1387 1387 1388 1388 1389 1389 1390 1391 1391 1392 1394 1396 1398 1400 1401 1403
1455 1452 1449 1446 1442 1439 1436 1433 1431 1429 1426 1423 1420 1418 1414 1412 1409 1406 1403 1400 1397 1395 1393 1390 1388 1387 1385 1384 1384 1384 1384 1385 1385 1386 1386 1387 1388 1389 1390 1392 1394 1396 1398
1453 1450 1447 1444 1441 1438 1434 1431 1427 1425 1423 1420 1417 1415 1412 1409 1406 1404 1401 1398 1395 1392 1390 1388 1386 1385 1384 1382 1382 1381 1381 1382 1382 1382 1382 1383 1384 1385 1386 1388 1390 1391 1393
1451 1448 1445 1442 1439 1436 1433 1430 1427 1423 1420 1417 1414 1412 1409 1407 1404 1401 1398 1395 1392 1390 1388 1386 1385 1384 1382 1381 1380 1379 1379 1379 1380 1380 1380 1380 1381 1382 1383 1384 1386 1387 1389
1448 1446 1443 1440 1438 1435 1432 1429 1426 1422 1419 1416 1412 1409 1407 1404 1402 1399 1396 1393 1391 1389 1387 1385 1384 1382 1381 1379 1379 1378 1378 1378 1378 1378 1378 1378 1379 1380 1380 1382 1383 1384 1385
1447 1444 1442 1439 1436 1434 1431 1428 1424 1421 1418 1415 1411 1408 1405 1403 1399 1397 1395 1392 1390 1388 1386 1384 1383 1381 1380 1379 1378 1377 1376 1376 1376 1376 1376 1377 1377 1378 1378 1379 1380 1381 1382
1445 1442 1440 1437 1435 1432 1429 1426 1423 1420 1417 1414 1411 1408 1406 1403 1399 1396 1394 1392 1389 1387 1385 1383 1381 1380 1379 1378 1377 1376 1375 1375 1375 1375 1375 1375 1375 1376 1376 1377 1378 1379 1380
1443 1440 1438 1435 1433 1430 1428 1425 1422 1419 1416 1413 1410 1407 1405 1402 1399 1396 1393 1391 1388 1386 1384 1382 1380 1379 1378 1377 1376 1375 1374 1373 1373 1373 1374 1374 1374 1374 1375 1376 1377 1378 1378
1441 1439 1436 1433 1431 1428 1426 1423 1420 1417 1414 1412 1409 1406 1403 1400 1398 1395 1392 1390 1387 1385 1383 1381 1379 1378 1377 1376 1375 1374 1373 1373 1373 1373 1373 1373 1373 1374 1374 1375 1375 1376 1377
1439 1436 1434 1431 1429 1426 1424 1421 1419 1416 1413 1410 1408 1405 1402 1399 1397 1394 1391 1389 1386 1384 1382 1380 1378 1376 1375 1375 1374 1373 1373 1373 1373 1372 1372 1372 1373 1373 1373 1374 1374 1375 1376
1437 1434 1432 1429 1427 1424 1422 1419 1417 1415 1412 1409 1406 1404 1401 1398 1396 1393 1390 1388 1385 1383 1381 1379 1377 1375 1374 1373 1373 1372 1372 1372 1372 1372 1372 1372 1372 1372 1372 1373 1373 1374 1375
1434 1432 1429 1427 1425 1422 1420 1418 1415 1413 1410 1408 1405 1403 1400 1397 1394 1392 1389 1387 1384 1382 1380 1378 1377 1375 1374 1373 1372 1372 1372 1372 1371 1371 1371 1371 1371 1371 1372 1372 1373 1373 1374